Home   Weather   Reutte   Past weeks

Flag for Austria Past Weather in Reutte, Tyrol, Austria — Yesterday and Last 2 Weeks

Now
17 °F

Cold.


Feels Like: 11 °F
Forecast: 9 / 33 °F
Wind: 3 mph from South

Location: Landeck

Current Time: Jan 19, 2017 at 12:17:18 pm

Latest Report: Jan 19, 2017 at 11:00 am


Visibility: N/A

Pressure: 30.66 "Hg (27.45 "Hg at 856m altitude)

Humidity: 65%

Dew Point: 7 °F

Location of ReutteLocation

Past Weather in Reutte — Graph

°F

Reutte Temperature Yesterday

Maximum temperature yesterday: 23 °F (at 1:00 pm)
Minimum temperature yesterday: 13 °F (at 9:00 pm)
Average temperature yesterday: 17 °F

High & Low Weather Summary for the Past Weeks

 TemperatureHumidityPressure
High40 °F (Jan 4, 2:00 pm)91% (Jan 9, 3:00 am)30.85 "Hg (Jan 9, 3:00 am)
Low3 °F (Jan 7, 4:00 am)42% (Jan 4, 2:00 pm)29.47 "Hg (Jan 13, 4:00 am)
Average23 °F77%30.27 "Hg
* Reported Jan 4 10:00 am — Jan 19 10:00 am, Reutte, Weather by CustomWeather, © 2017

Note: Actual official high and low records may vary slightly from our data, if they occured in-between our weather recording intervals... More about our weather records

Advertising

Reutte Weather History for the Previous 24 Hours

Scroll right to see more
 ConditionsComfort  
Time TempWeatherWind HumidityBarometerVisibility
10:00 am
Thu, Jan 19
13 °FCold.2 mph71%30.68 "HgN/A
9:00 am12 °FCold.2 mph73%30.70 "HgN/A
8:00 am11 °FCold.2 mph75%30.69 "HgN/A
7:00 am10 °FCold.2 mph75%30.68 "HgN/A
6:00 am10 °FFrigid.3 mph77%30.69 "HgN/A
5:00 am11 °FCold.2 mph76%30.70 "HgN/A
4:00 am10 °FCold.2 mph78%30.70 "HgN/A
3:00 am13 °FCold.3 mph76%30.68 "HgN/A
2:00 am12 °FCold.1 mph76%30.69 "HgN/A
1:00 am13 °FCold.2 mph78%30.67 "HgN/A
12:00 am15 °FCold.3 mph75%30.67 "HgN/A
11:00 pm
Wed, Jan 18
14 °FCold.2 mph80%30.66 "HgN/A
10:00 pm14 °FCold.2 mph82%30.66 "HgN/A
9:00 pm13 °FCold.1 mph82%30.66 "HgN/A
8:00 pm14 °FCold.1 mph79%30.65 "HgN/A
7:00 pm14 °FCold.1 mph79%30.63 "HgN/A
6:00 pm17 °FCold.2 mph77%30.61 "HgN/A
5:00 pm18 °FCold.1 mph72%30.59 "HgN/A
4:00 pm20 °FCold.1 mph66%30.56 "HgN/A
3:00 pm21 °FCold.1 mph66%30.54 "HgN/A
2:00 pm22 °FCold.1 mph61%30.54 "HgN/A
1:00 pm23 °FCold.1 mph56%30.55 "HgN/A
12:00 pm20 °FCold.2 mph59%30.58 "HgN/A
Weather by CustomWeather, © 2017

See weather overviewHow to use our weather pages